Location: Borderline Observatory
(42.7345°N, 72.8696°W)
Time: 01:08:36
(UTC-05:00)

Daily predictions for brighter satellites

Satellite Brightness Start Highest point End
(mag) Time Altitude Azimuth Time Altitude Azimuth Time Altitude Azimuth
Cosmos 2278 Rocket 4.4 03:36:29 15° SSE 03:36:29 15° SSE 03:37:23 10° SSE
USA 229 DEB 4.5 03:44:19 41° N 03:46:10 49° NE 03:53:13 10° ESE
CZ-4B DEB 4.3 04:00:53 10° NNE 04:06:28 74° ESE 04:07:10 65° SSE
Cosmos 2123 Rocket 4.4 04:01:10 10° S 04:07:17 63° E 04:13:28 10° NNE
Cosmos 1725 Rocket 4.3 04:01:52 10° N 04:08:01 63° E 04:14:07 10° SSE
Cosmos 2237 Rocket 3.3 04:11:34 32° N 04:11:34 32° N 04:14:41 10° NNE
Cosmos 2333 Rocket 3.9 04:18:07 20° N 04:18:07 20° N 04:20:09 10° N
Cosmos 2061 Rocket 4.2 04:16:40 55° SSW 04:16:40 55° SSW 04:21:43 10° S
CZ-2C R/B 4.2 04:15:29 10° SSE 04:19:53 57° ENE 04:20:32 51° NE
Atlas Centaur 2 3.9 04:19:19 29° SSW 04:21:18 33° S 04:28:36 10° SE
Cosmos 1354 Rocket 4.3 04:21:30 41° N 04:23:11 65° ENE 04:28:22 10° SSE
Meteor 2-3 Rocket 4.4 04:20:01 10° S 04:25:38 56° E 04:31:13 10° NNE
Lacrosse 5 rocket 2.5 04:27:36 37° S 04:28:49 47° SE 04:33:18 10° ENE
Cosmos 2016 Rocket 3.8 04:29:32 56° NW 04:30:28 64° W 04:36:27 10° S
Cosmos 2219 Rocket 4.1 04:35:57 15° N 04:35:57 15° N 04:37:14 10° N
Cosmos 1933 Rocket 3.6 04:28:39 10° S 04:32:59 75° E 04:37:23 10° NNE
DELTA 2 R/B (1) 3.7 04:36:56 54° SW 04:37:52 63° S 04:43:23 10° ESE
COSMO-SKYMED 1 3.7 04:33:47 10° SE 04:37:53 43° ENE 04:42:01 10° N
IRS-P2 Rocket 4.5 04:38:35 10° NNE 04:43:54 89° W 04:49:06 10° SSW
SL-16 R/B 2.1 04:41:38 35° SW 04:44:02 71° WNW 04:49:45 10° NNE
Meteor 2-12 Rocket 4.3 04:39:37 10° NNW 04:45:40 74° W 04:51:42 10° S
USA 116 4.4 04:43:02 10° S 04:48:17 82° WSW 04:53:41 10° NNW
Cosmos 2084 Rocket 3.3 04:49:05 61° N 04:49:34 70° NE 04:53:24 10° SE
Cosmos 1606 4.1 04:48:25 10° N 04:52:00 38° ENE 04:55:35 10° SSE
Cosmos 1862 Rocket 3.6 04:53:57 56° WNW 04:54:17 58° W 04:58:39 10° S
Cosmos 1782 4.0 04:51:04 10° N 04:54:51 41° ENE 04:58:36 10° SSE
SJ-6F 4.3 04:51:58 10° N 04:56:02 60° WNW 04:56:53 48° SW
Meteor 1-26 Rocket 4.1 04:53:06 13° NNW 04:58:03 62° W 05:03:35 10° S
CZ-4B R/B 3.6 04:58:19 10° N 05:03:38 42° WNW 05:08:54 10° SW
CZ-3B R/B 4.4 05:03:41 10° SSW 05:06:18 24° SE 05:07:53 10° E
SKYMED 3 4.5 05:03:27 10° SSE 05:07:47 89° WSW 05:12:09 10° NNW
Cosmos 2297 4.1 05:06:15 33° WNW 05:07:53 40° WSW 05:13:08 10° S
Abrixas rocket 3.4 05:09:54 28° N 05:09:55 28° N 05:12:46 10° ENE
Cosmos 2369 Rocket 3.3 05:04:37 10° NNW 05:09:56 42° ENE 05:15:13 10° SE
Cosmos 1992 Rocket 3.9 05:05:39 10° SSW 05:10:51 72° WNW 05:16:07 10° NNE
DEBRIS 2.4 05:15:44 44° W 05:16:17 52° SW 05:18:27 10° SE
NOSS 3-1 (C) 4.1 05:10:03 14° NW 05:16:52 86° NE 05:25:21 10° SE
NOAA 6 3.9 05:12:51 10° N 05:17:59 76° WNW 05:23:04 10° SSW
Okean 1-7 3.4 05:15:21 10° N 05:19:44 68° E 05:24:04 10° SSE
Cosmos 2233 Rocket 3.9 05:13:52 10° NNW 05:19:53 59° W 05:25:52 10° S
Cosmos 405 Rocket 3.6 05:16:23 10° N 05:19:58 47° ENE 05:23:34 10° SSE
Cosmos 1408 2.5 05:20:09 10° SSW 05:23:52 75° W 05:27:38 10° N
SKYMED 2 3.6 05:21:37 10° S 05:25:52 56° W 05:30:10 10° NNW
MSX 4.3 05:29:26 10° NNE 05:35:13 67° ESE 05:40:56 10° S
IDEFIX/ARIANE 42P 2.5 05:30:05 10° N 05:35:18 78° WNW 05:40:27 10° SSW
Cosmos 2221 Rocket 3.5 05:32:12 10° N 05:36:41 86° W 05:41:10 10° S
Okean-O 2.8 05:32:41 10° N 05:36:57 46° WNW 05:41:11 10° SW
USA 229 DEB 4.3 05:31:48 16° NW 05:37:05 41° WSW 05:43:50 10° S
USA 229 4.3 05:31:52 16° NW 05:37:11 42° WSW 05:43:57 10° S
EO 1 Del DPAF 3.8 05:34:16 10° SSW 05:37:48 35° W 05:40:57 12° NW
Thor Agena Rocket 3.8 05:33:47 10° SSE 05:38:50 71° ENE 05:43:53 10° N
Meteor 2-6 Rocket 4.3 05:33:21 10° NNW 05:39:12 80° W 05:45:08 10° S
CZ-2C R/B 2.5 05:34:32 10° NNE 05:39:46 89° ESE 05:44:52 10° SSW
PAYLOAD A 4.0 05:35:31 10° N 05:40:41 66° WNW 05:46:00 10° SSW
NOSS 3-1 (A) 4.1 05:33:07 10° NW 05:40:47 89° NE 05:49:16 10° SE
Cosmos 1900 4.4 05:37:58 10° SSW 05:43:07 83° WNW 05:48:19 10° NNE
CZ-4 R/B 3.9 05:40:44 10° NE 05:44:01 25° E 05:47:20 10° SSE
Cosmos 968 Rocket 3.6 05:39:49 10° NNW 05:45:00 58° WSW 05:50:09 10° S
Cosmos 1513 Rocket 4.5 05:40:44 10° N 05:46:51 86° E 05:52:54 10° S
Hubble Space Telescope 3.4 05:48:31 10° SSW 05:49:40 11° S 05:50:47 10° SSE
Cosmos 1943 Rocket 2.8 05:46:42 10° NNW 05:52:19 58° ENE 05:57:53 10° SE
Cosmos 1703 Rocket 4.2 05:49:19 10° NNW 05:53:17 34° W 05:57:13 10° SSW
Gbstr 26 Del rocket 4.4 05:50:35 13° NW 05:53:23 23° N 05:56:34 10° NE
Cosmos 1943 3.4 05:48:25 10° SSW 05:54:06 80° ESE 05:59:48 10° NNE
Cosmos 2237 Rocket 4.0 05:53:27 11° NW 05:54:24 11° NW 05:56:10 10° NNW
Cosmos 1891 Rocket 4.4 05:52:13 10° N 05:58:16 79° W 06:04:21 10° S
CSL-04 Rocket 4.4 05:53:27 10° NNE 05:58:53 62° ESE 06:04:21 10° S
Cosmos 1869 Rocket 3.9 05:55:06 10° SSW 05:59:14 42° WNW 06:03:26 10° N
SJ-12 3.8 05:55:45 10° N 05:59:52 73° WNW 06:03:57 10° SSW
Meteor 1-27 Rocket 3.8 05:55:49 10° NNW 06:01:43 81° W 06:07:27 10° S
Intercosmos 25 4.2 06:02:05 10° NW 06:04:55 26° W 06:08:22 10° SSW
Cosmos 2263 4.4 06:00:43 10° NNW 06:06:31 84° ENE 06:12:17 10° SSE
Aureole 3 2.7 06:04:14 10° S 06:07:23 84° E 06:10:22 10° N
ATLAS 5 CENTAUR R/B 1.9 06:03:03 10° SSW 06:07:37 83° SE 06:12:40 10° NE
Lacrosse 5 rocket 2.4 06:04:00 10° W 06:08:15 34° NNW 06:12:30 10° NE
Cosmos 1825 3.3 06:05:39 10° SW 06:08:43 23° WNW 06:11:49 10° NNW
USA 215 3.5 06:03:26 10° NE 06:10:00 80° SE 06:16:33 10° SW
PSLV R/B 3.6 06:10:07 10° WSW 06:13:14 59° S 06:16:25 10° E
COSMO-SKYMED 1 4.1 06:11:20 10° SW 06:14:15 17° W 06:17:10 10° NW
BREEZE-M DEB (TANK) 4.1 05:57:42 10° W 06:15:40 55° NNW 06:19:34 10° ENE
SL-8 R/B 3.7 06:11:20 10° WSW 06:16:07 84° NNW 06:20:55 10° ENE
Cosmos 1484 Rocket 2.8 06:13:08 10° N 06:17:11 84° W 06:21:12 10° SSW
Cosmos 2034 Rocket 4.0 06:11:20 10° NNW 06:17:32 66° W 06:23:39 10° S
